EW3148 Weather Reports


time (UTC)temp
C
wind
direction
speed
KPH
gust
KPH
rain 1hr
cm
rain 24hr
cm
rain mn
cm
humidity
%
barometer
mb
20260505184521 27 198 4.8 12.9 0.00 0.00 0.00 71 1005.5
20260505183534 27 221 4.8 20.9 0.00 0.00 0.00 73 1005.6
20260505182507 27 159 6.4 25.7 0.00 0.00 0.00 74 1005.8
20260505181458 26 219 4.8 25.7 0.00 0.00 0.00 77 1005.9
20260505180512 25 206 4.8 16.1 0.00 0.00 0.00 79 1006.0
20260505175500 25 241 4.8 11.3 0.00 0.00 0.00 81 1006.2
20260505174514 25 225 4.8 14.5 0.00 0.00 0.00 81 1006.3
20260505173534 24 217 3.2 14.5 0.00 0.00 0.00 82 1006.4
20260505172531 24 231 3.2 12.9 0.00 0.00 0.00 84 1006.7
20260505171458 23 222 4.8 14.5 0.00 0.00 0.00 83 1006.6
20260505170516 23 193 3.2 16.1 0.00 0.00 0.00 84 1006.6
20260505165525 23 234 3.2 16.1 0.00 0.00 0.00 85 1006.6
20260505163406 23 255 3.2 12.9 0.00 0.00 0.00 86 1006.6
20260505162336 22 219 1.6 9.7 0.00 0.00 0.00 87 1006.5
20260505161343 22 221 3.2 11.3 0.00 0.00 0.00 88 1006.7
20260505153114 22 197 3.2 14.5 0.00 0.00 0.00 89 1006.6
20260505152126 22 234 4.8 14.5 0.00 0.00 0.00 89 1006.4
20260505125009 21 205 4.8 16.1 0.00 0.00 0.00 90 1005.4
20260505124021 21 202 4.8 16.1 0.00 0.00 0.00 90 1005.2
20260505123018 21 188 4.8 16.1 0.00 0.00 0.00 90 1005.2
20260505121957 21 180 4.8 16.1 0.00 0.00 0.00 90 1005.0
20260505121019 21 176 6.4 22.5 0.00 0.00 0.00 90 1005.0
20260505120008 21 207 4.8 22.5 0.00 0.00 0.00 90 1005.0
20260505115008 21 209 4.8 16.1 0.00 0.00 0.00 90 1004.9
20260505113939 21 244 3.2 12.9 0.00 0.00 0.00 90 1004.7
20260505113004 21 209 6.4 20.9 0.00 0.00 0.00 90 1004.7
20260505111953 21 187 6.4 22.5 0.00 0.00 0.00 90 1004.9
20260505110926 21 205 3.2 17.7 0.00 0.00 0.00 90 1004.9
20260505101957 21 180 6.4 22.5 0.00 0.00 0.00 90 1005.1
20260505100925 21 190 6.4 22.5 0.00 0.00 0.00 90 1005.0
20260505095906 21 217 6.4 22.5 0.00 0.00 0.00 89 1005.2
20260505094848 21 171 8.0 22.5 0.00 0.00 0.00 89 1005.1
20260505093829 21 207 6.4 22.5 0.00 0.00 0.00 89 1005.0
20260505092831 21 186 8.0 33.8 0.00 0.00 0.00 89 1005.1
20260505090713 21 182 6.4 27.4 0.00 0.00 0.00 88 1005.1
20260505085715 21 202 8.0 32.2 0.00 0.00 0.00 88 1005.1
20260505084720 21 195 8.0 32.2 0.00 0.00 0.00 88 1005.3
20260505083740 21 192 8.0 20.9 0.00 0.00 0.00 88 1005.3
20260505082747 21 202 8.0 32.2 0.00 0.00 0.00 89 1005.3
20260505081747 21 184 6.4 32.2 0.00 0.00 0.00 89 1005.6
20260505080754 21 174 9.7 35.4 0.00 0.00 0.00 89 1005.8
20260505075741 21 232 8.0 35.4 0.00 0.00 0.00 88 1005.7
20260505074804 21 186 6.4 27.4 0.00 0.00 0.00 88 1005.8
20260505072613 21 192 9.7 30.6 0.00 0.00 0.00 87 1006.2
20260505071541 21 202 8.0 30.6 0.00 0.00 0.00 87 1006.2
20260505070602 21 215 11.3 30.6 0.00 0.00 0.00 86 1006.3
20260505065553 21 204 9.7 30.6 0.00 0.00 0.00 86 1006.4
20260505064543 21 207 11.3 29.0 0.00 0.00 0.00 86 1006.6
20260505063554 21 196 8.0 27.4 0.00 0.00 0.00 86 1006.7
20260505062600 21 225 8.0 27.4 0.00 0.00 0.00 86 1006.9
20260505061601 21 193 9.7 27.4 0.00 0.00 0.00 86 1007.0
20260505060610 21 186 9.7 27.4 0.00 0.00 0.00 86 1007.1
20260505054458 21 205 9.7 30.6 0.00 0.00 0.00 86 1007.0
20260505053513 21 261 11.3 32.2 0.00 0.00 0.00 86 1007.0
20260505052446 21 175 9.7 32.2 0.00 0.00 0.00 86 1007.0
20260505051435 21 184 8.0 29.0 0.00 0.00 0.00 86 1006.9
20260505050454 21 195 11.3 29.0 0.00 0.00 0.00 86 1006.9
20260505033950 22 179 9.7 24.1 0.00 0.00 0.00 82 1006.9
20260505032950 22 202 8.0 19.3 0.00 0.00 0.00 81 1006.9
20260505031934 22 156 6.4 19.3 0.00 0.00 0.00 80 1006.9
20260505030954 22 173 8.0 19.3 0.00 0.00 0.00 79 1006.9
20260505025914 23 179 6.4 16.1 0.00 0.00 0.00 79 1007.1
20260505024845 23 116 8.0 19.3 0.00 0.00 0.00 78 1007.0
20260505023818 23 227 8.0 19.3 0.00 0.00 0.00 78 1007.1
20260505022743 23 189 6.4 19.3 0.00 0.00 0.00 77 1007.0
20260505021757 23 182 6.4 19.3 0.00 0.00 0.00 76 1007.0
20260505020811 23 215 6.4 19.3 0.00 0.00 0.00 76 1006.9
20260505015759 23 180 8.0 19.3 0.00 0.00 0.00 75 1006.8
20260505014755 23 174 4.8 14.5 0.00 0.00 0.00 74 1006.9
20260505013805 24 173 4.8 14.5 0.00 0.00 0.00 73 1006.8
20260505012747 24 184 4.8 14.5 0.00 0.00 0.00 72 1006.8
20260505011758 25 160 4.8 20.9 0.00 0.00 0.00 71 1006.7
20260505010811 25 162 6.4 24.1 0.00 0.00 0.00 69 1006.7
20260505005735 25 204 8.0 24.1 0.00 0.00 0.00 68 1006.6
20260505004709 25 211 9.7 20.9 0.00 0.00 0.00 67 1006.5
20260505003732 25 197 8.0 30.6 0.00 0.00 0.00 65 1006.5
20260505002708 26 186 11.3 30.6 0.00 0.00 0.00 64 1006.4
20260505001732 26 172 8.0 25.7 0.00 0.00 0.00 63 1006.4
20260505000728 26 174 11.3 25.7 0.00 0.00 0.00 63 1006.5
20260504235719 26 183 8.0 20.9 0.00 0.00 0.00 62 1006.7
20260504234728 26 207 9.7 25.7 0.00 0.00 0.00 62 1006.8
20260504233707 26 174 8.0 25.7 0.00 0.00 0.00 61 1006.9
20260504231541 27 180 11.3 27.4 0.00 0.00 0.00 61 1007.0
20260504230540 26 183 11.3 30.6 0.00 0.00 0.00 61 1007.0
20260504225513 27 197 11.3 30.6 0.00 0.00 0.00 59 1007.4
20260504223441 27 184 8.0 29.0 0.00 0.00 0.00 59 1007.6
20260504222445 27 220 11.3 29.0 0.00 0.00 0.00 60 1007.6
20260504221447 27 155 11.3 25.7 0.00 0.00 0.00 60 1007.7
20260504220509 27 207 9.7 37.0 0.00 0.00 0.00 60 1007.8
20260504215502 27 157 12.9 37.0 0.00 0.00 0.00 59 1007.8
20260504214442 27 180 11.3 30.6 0.00 0.00 0.00 60 1007.8
20260504213422 27 175 14.5 30.6 0.00 0.00 0.00 60 1007.9
20260504212433 27 164 11.3 29.0 0.00 0.00 0.00 59 1007.9
20260504210331 28 148 8.0 29.0 0.00 0.00 0.00 59 1008.3
20260504205328 27 163 12.9 32.2 0.00 0.00 0.00 58 1008.5
20260504204305 27 138 11.3 32.2 0.00 0.00 0.00 58 1008.6
20260504203308 27 225 11.3 22.5 0.00 0.00 0.00 59 1008.8
20260504202315 28 152 9.7 29.0 0.00 0.00 0.00 59 1009.0
20260504200114 27 207 12.9 24.1 0.00 0.00 0.00 58 1009.3
20260504195139 28 194 8.0 24.1 0.00 0.00 0.00 58 1009.5
20260504194134 27 162 8.0 27.4 0.00 0.00 0.00 59 1009.8
20260504193113 27 232 8.0 27.4 0.00 0.00 0.00 59 1009.8
20260504192114 26 192 6.4 32.2 0.00 0.00 0.00 63 1010.0
20260504191123 26 172 11.3 32.2 0.00 0.00 0.00 61 1010.2
20260504190148 26 174 9.7 27.4 0.00 0.00 0.00 62 1010.3
20260504185140 26 192 12.9 29.0 0.00 0.00 0.00 61 1010.3